Weather reports worldwide

Advertisment
Pontevedra, Spain (8044): temperature & dewpoint: 18.06.2018 15:00:00 - 24.06.2018 15:00:00 (CEST)Pontevedra, Spain (8044): wind speed: 18.06.2018 15:00:00 - 24.06.2018 15:00:00 (CEST)Pontevedra, Spain (8044): wind direction: 18.06.2018 15:00:00 - 24.06.2018 15:00:00 (CEST)Pontevedra, Spain (8044): reduced air pressure: 18.06.2018 15:00:00 - 24.06.2018 15:00:00 (CEST)Pontevedra, Spain (8044): visibility: 18.06.2018 15:00:00 - 24.06.2018 15:00:00 (CEST)Pontevedra, Spain (8044): precipitation: 18.06.2018 15:00:00 - 24.06.2018 15:00:00 (CEST)
Date & Time tt [°C] td [°C] ff [km/h] ff [kn] dd ppp [hPa] vv [km] rr [mm]
24.06.2018 15:00:00 23,5 18,2 11 6 WSW 1014,4 8 0,0
24.06.2018 14:00:00 24,2 18,6 11 6 SW 1014,3 10 -
24.06.2018 13:00:00 23,2 18,5 9 5 SSW 1014,5 7 0,0
24.06.2018 12:00:00 22,2 18,2 13 7 SSW 1014,4 - 0,0
24.06.2018 11:00:00 23,5 18,4 9 5 SSW 1013,9 6 -
24.06.2018 10:00:00 23,3 18,4 4 2 S 1013,7 10 0,0
24.06.2018 09:00:00 21,1 17,5 4 2 NE 1013,7 10 0,0
24.06.2018 08:00:00 19,7 16,7 5 3 ENE 1013,4 10 -
24.06.2018 07:00:00 19,5 16,5 8 4 ENE 1013,0 10 0,0
24.06.2018 06:00:00 20,0 16,6 5 3 ENE 1012,8 10 0,0
24.06.2018 05:00:00 20,5 17,1 9 5 ENE 1012,7 20 -
24.06.2018 04:00:00 21,0 17,4 11 6 ENE 1012,9 20 0,0
24.06.2018 03:00:00 21,0 18,0 5 3 E 1013,4 15 0,0
24.06.2018 02:00:00 20,9 18,1 2 1 SSE 1013,8 3,8 -
24.06.2018 01:00:00 21,6 18,0 2 1 N 1014,3 - 0,0
24.06.2018 00:00:00 22,1 18,1 2 1 SE 1014,5 7 0,0
23.06.2018 23:00:00 22,8 17,7 4 2 S 1014,2 14 -
23.06.2018 22:00:00 25,4 18,3 4 2 S 1013,9 20 0,0
23.06.2018 21:00:00 27,4 18,4 4 2 SW 1013,5 20 0,0
23.06.2018 20:00:00 27,9 18,9 5 3 SW 1013,2 12 -
23.06.2018 19:00:00 27,0 18,0 15 8 SSW 1013,1 20 0,0
23.06.2018 18:00:00 27,8 18,5 18 10 SSW 1012,5 20 0,0
23.06.2018 17:00:00 30,5 21,3 11 6 SW 1012,2 12 -
23.06.2018 16:00:00 29,3 21,0 11 6 SSW 1012,7 19 0,0
23.06.2018 15:00:00 30,5 21,0 8 4 SSW 1013,0 20 0,0
23.06.2018 14:00:00 29,5 21,7 5 3 S 1013,7 15 -
23.06.2018 13:00:00 27,1 19,7 8 4 SSW 1014,7 19 0,0
23.06.2018 12:00:00 26,5 19,6 8 4 SW 1014,9 19 0,0
23.06.2018 11:00:00 25,7 20,5 5 3 WSW 1014,9 20 -
23.06.2018 10:00:00 22,9 19,5 5 3 S 1014,7 20 0,0
23.06.2018 09:00:00 20,5 18,6 2 1 WNW 1014,3 20 0,0
23.06.2018 08:00:00 19,0 17,5 2 1 WSW 1014,5 15 -
23.06.2018 07:00:00 18,6 17,4 2 1 N 1014,2 12 0,0
23.06.2018 06:00:00 18,8 17,5 4 2 NW 1014,2 13 0,0
23.06.2018 05:00:00 19,2 17,7 5 3 NNE 1014,5 18 -
23.06.2018 04:00:00 19,4 17,4 2 1 NNW 1015,0 16 0,0
23.06.2018 03:00:00 20,0 17,6 8 4 NNE 1015,2 20 0,0
23.06.2018 02:00:00 20,7 17,3 2 1 NNW 1015,6 20 -
23.06.2018 01:00:00 21,6 18,2 2 1 SSE 1015,4 19 0,0
23.06.2018 00:00:00 22,4 18,2 2 1 SE 1015,3 20 0,0
22.06.2018 23:00:00 23,1 18,4 4 2 S 1015,1 19 -
22.06.2018 22:00:00 24,5 18,4 4 2 SSE 1014,5 19 0,0
22.06.2018 21:00:00 26,5 18,9 5 3 S 1014,2 20 0,0
22.06.2018 20:00:00 30,5 19,8 5 3 SSW 1013,7 15 -
22.06.2018 19:00:00 31,7 19,7 11 6 NW 1013,9 20 0,0
22.06.2018 18:00:00 31,8 18,4 9 5 N 1014,2 20 0,0
22.06.2018 17:00:00 31,3 19,3 11 6 N 1014,7 20 -
22.06.2018 16:00:00 30,6 19,3 8 4 NW 1015,3 20 0,0
22.06.2018 15:00:00 29,2 19,2 11 6 NW 1016,4 20 0,0
22.06.2018 14:00:00 28,1 18,2 8 4 W 1017,5 20 -
22.06.2018 13:00:00 27,1 18,4 11 6 WNW 1017,5 20 0,0
22.06.2018 12:00:00 25,8 16,9 4 2 NW 1017,6 20 0,0
22.06.2018 11:00:00 24,0 18,4 5 3 SSW 1018,6 20 -
22.06.2018 10:00:00 22,3 18,5 5 3 N 1018,2 20 0,0
22.06.2018 09:00:00 20,0 17,2 2 1 ESE 1017,7 20 0,0
22.06.2018 08:00:00 18,5 15,9 15 8 ENE 1017,5 20 -
22.06.2018 07:00:00 17,9 16,6 9 5 ENE 1017,7 20 0,0
22.06.2018 06:00:00 18,0 17,0 4 2 SSW 1018,2 15 0,0
22.06.2018 05:00:00 18,6 17,4 2 1 NE 1016,9 18 -
22.06.2018 04:00:00 19,4 17,7 2 1 NE 1016,7 20 0,0
22.06.2018 03:00:00 20,1 17,7 4 2 NNW 1017,2 20 0,0
22.06.2018 02:00:00 21,0 17,2 11 6 E 1017,3 20 -
22.06.2018 01:00:00 21,2 18,2 11 6 NNE 1017,1 7 1,0
22.06.2018 00:00:00 22,1 17,2 4 2 NNE 1017,4 20 0,0
21.06.2018 23:00:00 23,2 17,4 5 3 S 1017,7 20 -
21.06.2018 22:00:00 24,2 17,7 5 3 N 1016,3 20 0,0
21.06.2018 21:00:00 24,5 18,2 8 4 NNE 1016,0 20 0,0
21.06.2018 20:00:00 23,2 18,3 4 2 NE 1016,1 15 -
21.06.2018 19:00:00 23,8 17,5 11 6 SW 1016,9 20 0,0
21.06.2018 18:00:00 30,6 18,7 9 5 NW 1016,0 20 0,0
21.06.2018 17:00:00 29,7 19,7 9 5 WNW 1016,2 15 -
21.06.2018 16:00:00 27,2 18,5 5 3 SW 1017,0 20 0,0
21.06.2018 15:00:00 25,8 17,7 5 3 S 1018,0 20 0,0
21.06.2018 14:00:00 23,9 16,7 8 4 SW 1018,8 15 -
21.06.2018 13:00:00 22,6 16,8 11 6 SW 1019,3 18 0,0
21.06.2018 12:00:00 21,5 16,9 8 4 SW 1019,0 16 0,0
21.06.2018 11:00:00 23,6 18,5 4 2 W 1018,2 15 -
21.06.2018 10:00:00 21,5 17,5 4 2 NW 1017,7 16 0,0
21.06.2018 09:00:00 19,6 17,4 4 2 NNE 1017,5 18 0,0
21.06.2018 08:00:00 18,1 16,4 4 2 S 1017,5 10 -
21.06.2018 07:00:00 18,6 16,9 2 1 NE 1016,4 10 0,0
21.06.2018 06:00:00 19,1 17,2 4 2 NE 1015,9 13 0,0
21.06.2018 05:00:00 19,4 17,7 2 1 S 1015,8 14 -
21.06.2018 04:00:00 20,2 17,8 2 1 ENE 1015,9 18 0,0
21.06.2018 03:00:00 20,7 17,7 2 1 SSW 1015,8 20 0,0
21.06.2018 02:00:00 21,6 17,8 8 4 ENE 1016,3 20 -
21.06.2018 01:00:00 22,1 17,5 9 5 ENE 1017,0 20 0,0
21.06.2018 00:00:00 22,8 17,7 5 3 ENE 1017,6 20 0,0
20.06.2018 23:00:00 23,2 18,3 4 2 E 1017,0 20 -
20.06.2018 22:00:00 23,9 18,1 2 1 N 1016,2 20 0,0
20.06.2018 21:00:00 24,7 18,4 2 1 NW 1015,7 20 0,0
20.06.2018 20:00:00 25,1 17,3 8 4 NE 1016,0 20 -
20.06.2018 19:00:00 24,4 17,1 8 4 NE 1016,2 20 0,0
20.06.2018 18:00:00 24,5 16,5 4 2 N 1016,6 20 0,0
20.06.2018 17:00:00 24,2 16,7 8 4 SSW 1017,0 15 -
20.06.2018 16:00:00 23,4 16,2 21 11 SW 1017,2 20 0,0
20.06.2018 15:00:00 24,2 15,9 18 10 SW 1016,6 20 0,0
20.06.2018 14:00:00 25,9 17,5 9 5 S 1015,8 20 -
20.06.2018 13:00:00 26,6 18,2 8 4 S 1015,7 20 0,0
20.06.2018 12:00:00 26,4 17,2 5 3 SW 1015,5 20 0,0
20.06.2018 11:00:00 25,2 17,9 4 2 SW 1015,6 15 -
20.06.2018 10:00:00 23,3 16,8 5 3 N 1015,8 20 0,0
20.06.2018 09:00:00 19,7 15,6 4 2 NE 1015,7 18 0,0
20.06.2018 08:00:00 18,4 14,9 11 6 ENE 1015,9 15 -
20.06.2018 07:00:00 17,8 14,5 8 4 ENE 1016,0 20 0,0
20.06.2018 06:00:00 18,2 14,7 11 6 ENE 1015,7 20 0,0
20.06.2018 05:00:00 18,8 14,7 9 5 NE 1015,8 20 -
20.06.2018 04:00:00 19,4 14,9 9 5 ENE 1015,5 20 0,0
20.06.2018 03:00:00 20,1 14,7 11 6 ENE 1015,7 20 0,0
20.06.2018 02:00:00 20,6 14,9 13 7 ENE 1016,0 20 -
20.06.2018 01:00:00 21,0 14,9 11 6 ENE 1016,2 20 0,0
20.06.2018 00:00:00 21,9 15,3 4 2 SSE 1016,3 20 0,0
19.06.2018 23:00:00 22,7 14,5 2 1 NE 1016,1 20 -
19.06.2018 22:00:00 24,8 14,9 4 2 SW 1015,6 20 0,0
19.06.2018 21:00:00 26,1 15,2 5 3 S 1015,3 20 0,0
19.06.2018 20:00:00 26,7 15,1 8 4 SW 1015,2 10 -
19.06.2018 19:00:00 28,1 15,4 11 6 SW 1015,3 20 0,0
19.06.2018 18:00:00 29,7 15,8 9 5 SSW 1015,4 20 0,0
19.06.2018 17:00:00 30,4 16,0 8 4 SW 1015,6 10 -
19.06.2018 16:00:00 30,1 15,4 13 7 SSW 1015,9 20 0,0
19.06.2018 15:00:00 29,6 17,1 13 7 SW 1016,0 20 0,0
19.06.2018 14:00:00 30,0 17,1 5 3 SW 1016,2 15 -
19.06.2018 13:00:00 27,9 17,1 5 3 WSW 1016,6 18 0,0
19.06.2018 12:00:00 25,6 16,4 5 3 W 1017,0 20 0,0
19.06.2018 11:00:00 23,3 15,9 5 3 S 1017,5 15 -
19.06.2018 10:00:00 20,6 14,7 5 3 S 1017,9 20 0,0
19.06.2018 09:00:00 17,7 13,6 4 2 S 1018,0 16 0,0
19.06.2018 08:00:00 16,3 13,0 4 2 SE 1018,0 20 -
19.06.2018 07:00:00 16,4 12,6 2 1 NNW 1017,9 20 0,0
19.06.2018 06:00:00 16,4 12,9 4 2 SSE 1017,8 20 0,0
19.06.2018 05:00:00 16,8 12,7 4 2 S 1017,9 20 -
19.06.2018 04:00:00 17,2 12,5 2 1 SW 1018,2 20 0,0
19.06.2018 03:00:00 18,0 12,2 2 1 S 1018,4 20 0,0
19.06.2018 02:00:00 19,2 12,0 4 2 NW 1018,7 20 -
19.06.2018 01:00:00 21,0 12,4 5 3 NE 1019,2 8 0,0
19.06.2018 00:00:00 21,7 12,0 11 6 NNE 1019,4 20 0,0
18.06.2018 23:00:00 22,9 11,3 15 8 NNE 1019,7 20 -
18.06.2018 22:00:00 25,2 11,4 15 8 NNE 1019,4 20 0,0
18.06.2018 21:00:00 27,8 11,4 11 6 N 1019,2 20 0,0
18.06.2018 20:00:00 29,8 11,3 9 5 N 1019,1 20 -
18.06.2018 19:00:00 30,3 14,8 13 7 NNW 1018,9 20 0,0
18.06.2018 18:00:00 30,9 10,3 13 7 NNE 1019,4 20 0,0
18.06.2018 17:00:00 31,1 12,9 15 8 NNE 1019,8 20 -
18.06.2018 16:00:00 30,9 14,9 13 7 N 1020,2 20 0,0
18.06.2018 15:00:00 30,4 14,9 13 7 N 1020,6 20 0,0

tt = temperature
td = dewpoint
ff = wind speed
dd = wind direction
ppp = reduced air pressure
vv = visibility
rr = precipitation

Next stations